"Pseudo-MPEC" for P115Jnd

Created 2020 Sep 19 3:07:22 UT using Find_Orb

Click here for an explanation of pseudo-MPECs

 
 Astrometry: 
     P115Jnd  C2020 09 13C:@tA9ZM]X\`NZ*g#8do4G6)HRF$AstrometryZ;?Ti`mJg*(Jk0F51
     P115Jnd  C2020 09 13*OwagbW_redacted;vXuZ(x,anK;]ec-SmiW8yagw#/94niFjILrF51
     P115Jnd  C2020 09 13*%Xks^`0I#VK-gca)+^,:Q@.@@RjF$tK]?xAY/D7'UhB%OK0gW$QF51
     P115Jnd ^C2020 09 15.23177119 15 37.824-32 31 09.21   ~9F67 21.08GVNEOCP568
     P115Jnd ^C2020 09 15.23271819 15 37.918-32 31 08.84   ~9F67 21.05GVNEOCP568
     P115Jnd ^C2020 09 15.23367219 15 38.018-32 31 08.42   ~9F67 21.03GVNEOCP568
     P115Jnd KC2020 09 183_K?)rDWw'Pvc_F@U.xv8clickI`%[exfR78K@doQaP']RjvSE.a474
     P115Jnd KC2020 09 18%,7q0xPE=NeIehereWt_Aj6)t=@Mbq-g4HFu`=_8n^UvIXb[RGv8474
     P115Jnd KC2020 09 18_qUZD=Q$$lMeA3\KPZ'B8i#DjYA(sl8S6/^n4V:aA\tXyb[Yfori474
     P115Jnd KC2020 09 18WK2Zo#m6_f\wsraW@u4[6/qdg3cPexplanationHvs%G,9/--HMi474

Station data:
(474) Mount John Observatory, Lake Tekapo  (S43.987388 E170.464960)  New
   Zealand.  Observers A. C. Gilmore, P. M. Kilmartin. Measurer P. M.
   Kilmartin. 1.0-m f/7.7 reflector + CCD.
(568) Mauna Kea  (N19.826116 W155.472200)  US/Hawaii.
(F51) Pan-STARRS 1, Haleakala  (N20.707235 W156.255910)  US/Hawaii.
   Observers N. Primak, A. Schultz, S. Watters, J. Thiel, T. Goggia. Measurer
   PS1 Science Consortium. 1.8-m Ritchey-Chrétien + CCD.

Orbital elements:  P115Jnd
   Perihelion 2020 Aug 20.316243 +/- 8.29 TT =  7:35:23 (JD 2459081.816243)
Epoch 2020 Sep 18.0 TT = JDT 2459110.5   Earth MOID: 0.6326   AutoNEOCP
M   7.59179579 +/- 3.6              (J2000 ecliptic)
n   0.26467229 +/- 0.0819           Peri.  251.08833 +/- 7
a   2.40250185 +/- 0.496            Node    55.33408 +/- 4.2
e   0.3192747 +/- 0.121             Incl.    5.95266 +/- 0.19
P   3.72                   H 18.6   G  0.15   U 11.1  
q 1.63544373 +/- 0.063    Q 3.16955996 +/- 1.26
From 10 observations 2020 Sept. 13-18; mean residual 0".11
Residuals in arcseconds: 
200913 F51  .03+  .02+    200915 568  .02-  .02-    200918 474  .10+  .04+    
200913 F51  .03+  .01-    200915 568  .00   .01-    200918 474  .23+  .26+    
200913 F51  .06-  .01-    200918 474  .17-  .21-    
200915 568  .03+  .02+    200918 474  .16-  .09-    

Ephemerides (geocentric):
Date (UTC) HH   RA              Dec         delta   r     elong  mag " sig PA
---- -- -- --  -------------   -----------  ------ ------ -----  --- ---- ---
2020 09 19 03  19 22 46.353   -32 02 10.43  0.9986 1.6510 111.0 21.1 1.43  45
2020 09 19 04  19 22 51.048   -32 01 51.25  0.9990 1.6510 111.0 21.1 1.46  45
2020 09 19 05  19 22 55.745   -32 01 32.05  0.9993 1.6511 111.0 21.1 1.49  44
2020 09 19 06  19 23 00.444   -32 01 12.84  0.9996 1.6511 110.9 21.1 1.52  43
2020 09 19 07  19 23 05.146   -32 00 53.62  1.0000 1.6512 110.9 21.1 1.55  43
2020 09 19 08  19 23 09.850   -32 00 34.38  1.0003 1.6512 110.9 21.1 1.59  42
2020 09 19 09  19 23 14.556   -32 00 15.12  1.0006 1.6512 110.9 21.1 1.62  41
2020 09 19 10  19 23 19.264   -31 59 55.86  1.0010 1.6513 110.9 21.1 1.65  41
2020 09 19 11  19 23 23.974   -31 59 36.58  1.0013 1.6513 110.8 21.1 1.69  40
2020 09 19 12  19 23 28.687   -31 59 17.28  1.0016 1.6514 110.8 21.1 1.72  40
2020 09 19 13  19 23 33.401   -31 58 57.98  1.0020 1.6514 110.8 21.1 1.75  39
2020 09 19 14  19 23 38.118   -31 58 38.65  1.0023 1.6515 110.8 21.1 1.79  38
2020 09 19 15  19 23 42.837   -31 58 19.32  1.0027 1.6515 110.7 21.1 1.83  38
2020 09 19 16  19 23 47.558   -31 57 59.97  1.0030 1.6515 110.7 21.1 1.86  37
2020 09 19 17  19 23 52.281   -31 57 40.61  1.0033 1.6516 110.7 21.1 1.90  37
2020 09 19 18  19 23 57.007   -31 57 21.23  1.0037 1.6516 110.7 21.1 1.93  37
2020 09 19 19  19 24 01.734   -31 57 01.84  1.0040 1.6517 110.6 21.1 1.97  36
2020 09 19 20  19 24 06.464   -31 56 42.44  1.0044 1.6517 110.6 21.1 2.01  36
2020 09 19 21  19 24 11.196   -31 56 23.02  1.0047 1.6518 110.6 21.1 2.05  35
2020 09 19 22  19 24 15.930   -31 56 03.59  1.0050 1.6518 110.6 21.1 2.08  35
2020 09 19 23  19 24 20.666   -31 55 44.14  1.0054 1.6519 110.6 21.1 2.12  34
2020 09 20 00  19 24 25.404   -31 55 24.68  1.0057 1.6519 110.5 21.1 2.16  34
2020 09 20 01  19 24 30.144   -31 55 05.21  1.0061 1.6519 110.5 21.1 2.20  34
2020 09 20 02  19 24 34.887   -31 54 45.72  1.0064 1.6520 110.5 21.1 2.24  33
2020 09 20 03  19 24 39.631   -31 54 26.22  1.0067 1.6520 110.5 21.1 2.28  33
2020 09 20 04  19 24 44.378   -31 54 06.71  1.0071 1.6521 110.4 21.1 2.32  32
2020 09 20 05  19 24 49.127   -31 53 47.18  1.0074 1.6521 110.4 21.1 2.36  32
2020 09 20 06  19 24 53.878   -31 53 27.64  1.0078 1.6522 110.4 21.1 2.41  32
2020 09 20 07  19 24 58.631   -31 53 08.09  1.0081 1.6522 110.4 21.1 2.45  31
2020 09 20 08  19 25 03.386   -31 52 48.52  1.0084 1.6523 110.4 21.1 2.49  31
2020 09 20 09  19 25 08.143   -31 52 28.94  1.0088 1.6523 110.3 21.1 2.53  31
2020 09 20 10  19 25 12.902   -31 52 09.34  1.0091 1.6523 110.3 21.1 2.58  30
2020 09 20 11  19 25 17.663   -31 51 49.73  1.0095 1.6524 110.3 21.1 2.62  30
2020 09 20 12  19 25 22.427   -31 51 30.11  1.0098 1.6524 110.3 21.1 2.66  30
2020 09 20 13  19 25 27.192   -31 51 10.47  1.0101 1.6525 110.2 21.1 2.71  29
2020 09 20 14  19 25 31.960   -31 50 50.82  1.0105 1.6525 110.2 21.1 2.75  29
2020 09 20 15  19 25 36.730   -31 50 31.15  1.0108 1.6526 110.2 21.1 2.80  29
2020 09 20 16  19 25 41.501   -31 50 11.47  1.0112 1.6526 110.2 21.1 2.84  29
2020 09 20 17  19 25 46.275   -31 49 51.78  1.0115 1.6527 110.2 21.1 2.89  28
2020 09 20 18  19 25 51.051   -31 49 32.08  1.0118 1.6527 110.1 21.1 2.93  28
2020 09 20 19  19 25 55.829   -31 49 12.36  1.0122 1.6527 110.1 21.1 2.98  28
2020 09 20 20  19 26 00.609   -31 48 52.62  1.0125 1.6528 110.1 21.1 3.03  28
2020 09 20 21  19 26 05.391   -31 48 32.88  1.0129 1.6528 110.1 21.1 3.07  27
2020 09 20 22  19 26 10.175   -31 48 13.11  1.0132 1.6529 110.0 21.1 3.12  27
2020 09 20 23  19 26 14.961   -31 47 53.34  1.0135 1.6529 110.0 21.1 3.17  27
2020 09 21 00  19 26 19.749   -31 47 33.55  1.0139 1.6530 110.0 21.1 3.22  27
2020 09 21 01  19 26 24.539   -31 47 13.75  1.0142 1.6530 110.0 21.1 3.27  26
2020 09 21 02  19 26 29.332   -31 46 53.93  1.0146 1.6531 110.0 21.1 3.32  26